Location: Chuathbaluk
(61.5726°N, 159.2454°W)
Time: 23:38:26
(UTC+00:00)

Transit 2A - Pass Details

Date: 03 December 2020
Orbit: 598 x 960 km, 66.7° (Epoch: 20 January)

Event Time Altitude Azimuth Distance (km) Brightness Sun altitude
Rises 01:31:39 0° 150° (SSE) 3,606 9.7 -1.5°
Reaches altitude 10° 01:36:27 10° 118° (ESE) 2,613 8.6 -1.9°
Maximum altitude 01:38:02 11° 102° (ESE) 2,513 8.4 -2.0°
Drops below altitude 10° 01:39:36 10° 87° (E) 2,567 8.3 -2.2°
Enters shadow 01:43:23 - 58° (ENE) 3,226 8.6 -2.5°
Sets 01:44:08 0° 54° (NE) 3,422 - -2.5°
